Terminal Aerodrome Forecast
Issued by NWS Chicago, IL

Home | Current Version | Previous Version | Graphics & Text | Print | Product List | Glossary On
Versions: 1 2 3 4 5 6 7 8 9 10 11 12 13 14 15 16 17 18 19 20 21 22 23 24 25
000
FTUS43 KLOT 181723
TAFRFD
TAF
KRFD 181723Z 1818/1918 29011KT P6SM FEW025 SCT150 BKN250
     FM190000 33004KT P6SM VCSH SCT030 OVC080
     FM190500 34003KT P6SM SCT080 BKN250
     FM191300 32005KT P6SM FEW035 SCT250=

USA.gov is the U.S. government's official web portal to all federal, state and local government web resources and services.